Home > Weather > Kerpen > Past weeks

Flag for Germany Weather for the Past 2 Weeks in Kerpen, North Rhine-Westphalia, Germany

Now
55 °F

Passing clouds.


Feels Like: 55 °F
Forecast: 42 / 64 °F
Wind: 2 mph from East

Location: Noervenich

Current Time: May 4, 2016 at 1:55:57 PM

Latest Report: May 4, 2016 at 1:20 PM


Visibility: N/A

Pressure: 30.39 "Hg

Humidity: 44%

Dew Point: 34 °F

Location of KerpenLocation

Historic Weather in Kerpen — Graph

°F

Kerpen Temperature Yesterday

Maximum temperature yesterday: 57 °F (at 2:20 PM)
Minimum temperature yesterday: 48 °F (at 7:20 AM)
Average temperature yesterday: 53 °F

High & Low Weather Summary for the Past Weeks

 TemperatureHumidityPressure
High68 °F (Apr 21, 4:20 PM)100% (Apr 30, 5:20 AM)30.48 "Hg (Apr 30, 5:20 AM)
Low34 °F (Apr 21, 6:20 AM)26% (Apr 21, 4:20 PM)29.53 "Hg (Apr 26, 10:20 AM)
Average46 °F70%30.04 "Hg
* Reported Apr 19 12:20 PM — May 4 12:20 PM, Kerpen, Weather by CustomWeather, © 2016

Note: Actual official high and low records may vary slightly from our data, if they occured in-between our weather recording intervals... More about our weather records

Advertising

Kerpen Weather History for the Previous 24 Hours

Scroll right to see more
 ConditionsComfort  
Time TempWeatherWind HumidityBarometerVisibility
12:20 PM
Wed, May 4
54 °FPassing clouds.3 mph47%30.39 "HgN/A
11:20 AM52 °FPassing clouds.2 mph50%30.39 "HgN/A
10:20 AM50 °FPartly sunny.2 mph58%30.42 "HgN/A
9:20 AM48 °FPassing clouds.1 mph71%30.42 "HgN/A
8:20 AM43 °FScattered clouds.2 mph81%30.42 "HgN/A
7:20 AM39 °FScattered clouds.1 mph87%30.39 "HgN/A
6:20 AM37 °FPassing clouds.3 mph87%30.39 "HgN/A
5:20 AM39 °FPassing clouds.3 mph87%30.39 "HgN/A
4:20 AM41 °FQuite cool.5 mph81%30.36 "HgN/A
3:20 AM41 °FQuite cool.5 mph81%30.36 "HgN/A
2:20 AM41 °FQuite cool.5 mph81%30.36 "HgN/A
1:20 AM41 °FQuite cool.2 mph81%30.36 "HgN/A
12:20 AM45 °FPassing clouds.5 mph71%30.36 "HgN/A
11:20 PM
Tue, May 3
48 °FPassing clouds.5 mph62%30.36 "HgN/A
10:20 PM50 °FPassing clouds.5 mph54%30.33 "HgN/A
9:20 PM52 °FPassing clouds.5 mph50%30.30 "HgN/A
8:20 PM54 °FPassing clouds.7 mph44%30.27 "HgN/A
7:20 PM55 °FPassing clouds.9 mph41%30.27 "HgN/A
6:20 PM57 °FPassing clouds.10 mph41%30.24 "HgN/A
5:20 PM57 °FScattered clouds.13 mph41%30.24 "HgN/A
4:20 PM57 °FScattered clouds.13 mph39%30.24 "HgN/A
3:20 PM57 °FScattered clouds.14 mph39%30.24 "HgN/A
2:20 PM57 °FScattered clouds.13 mph44%30.21 "HgN/A
1:20 PM55 °FScattered clouds.14 mph55%30.21 "HgN/A
Weather by CustomWeather, © 2016

See weather overviewHow to use our weather pages